Find Starlink 31956

NORAD ID: 59930 Int'l Des: 2024-106 Owner: SPXS Country: US Constellation: starlink operational
LEOCIRCULAR

实时位置

正在加载3D地球...

关于 Starlink 31956

正在加载描述...

即将过境

Passes for default location (London). Set your location on the main map for personalized predictions.

高度历史

Loading altitude history...

两行轨道根数

1 59930U 24106J 26124.72868420 .00000797 00000-0 38489-4 0 9990
2 59930 43.0030 16.0138 0001140 268.0817 91.9904 15.27565114109093
Epoch: May 4, 2026 • Age: 9 hours

当前状态

高度 482.5 km
速度 7.63 km/s
星下点 3.84°N, 64.5°W
发射日期 Jun 1, 2024
运行时间 1.9 years
类型 internet

技术详情

分类 Payload
质量 730.00 kg
干质量 700.00 kg
总质量 730.00 kg
长度 0.30 m
直径 4.10 m
跨度 29.00 m
形状 Box + pan
制造商 SPXS
平台类型 Starlink V2M
阶段状态 In Orbit
所有者/国家 SPXS/US

Most Searched